DELTA 1 DEB, 18870

Orbit data source: Space-Track

DELTA 1 DEB, 18870 is space debris in LEO originally from a launch on Tue, 06 Nov 1973 UTC launched from the Air Force Western Test Range (AFWTR). Debris objects in space refer to the collection of defunct objects orbiting the Earth. Examples of debris include non-operational satellites, rocket bodies, and fragments generated from explosions, collisions, or faulty payload assembly.

Loading next visibility...
Identifier
18870, 1973-086HA
Orbit
LEO
Country
Flag of USUS
Related business
Manufacturer
Unknown
Mission
Spacecraft
Bus & Motor
Unknown
Mass
Unknown
Launch date (UTC)
1973-11-06 (52 years ago)
Launch vehicle
Unknown
Launch site
Air Force Western Test Range (AFWTR)
Object type
Payload
Rocket body
Debris
Shape & HBR
Unknown shape, 0.1 m
Radar Cross Section
Small (<0.1 m²)

Expand to show TLE details & history
Last TLE update: 3 days ago

TLE from 3 days ago
0 DELTA 1 DEB
1 18870U 73086HA  25352.36118536  .00000748  00000-0  87118-2 0  9994
2 18870 101.7729 293.1871 0344593  95.0341 269.0119 11.95107058561450
Epoch: 2025-12-18T08:40Z
TLE epoch observation values (Epoch: 2025-12-18T08:40:06.415Z)
Latitude
-0.00002°
Longitude
75.94258°
Altitude
1,719.723 km
Speed
7.011 km/s
True Right ascension
19h 32m 44s
True Declination
0° 00' 00"
Sunlit
Object was in daylight at epoch
Visualization orbit readout
Latitude
Unknown
Longitude
Unknown
Altitude
Unknown
Speed
Unknown
Apparent Right ascension
Unknown
Apparent Declination
Unknown
Sunlit
N/A
Visualization observer readout
Local Sidereal Time
16:33:16
Azimuth
Unknown
Elevation
Unknown
Doppler factor
Unknown
Orbital elements
Apogee altitude
1,978.841 km
Perigee altitude
1,422.076 km
Semi-major axis
8,078.595 km
Eccentricity
0.03446
Inclination
101.7729°
RAAN
293.1871°
Arg. of periapsis
95.0341°
True anomaly
265.06979°
Mean anomaly
269.0119°
Eccentric anomaly
267.04016°
Mean motion
2.98909 °/min
Orbital period
120.44 mins
BSTAR
0.0087118
Loading maneuver chart data...
Computing Atmospheric mass density...
Loading historical data...
Loading historical data...
Loading historical data...
Loading historical data...
Loading historical data...
Loading historical data...
Loading historical data...

Documentation

Showing up to 5 results
|